Location: Stamford Observatory
(41.1241°N, 73.5498°W)
Time: 16:17:05
(UTC-05:00)

Daily predictions for brighter satellites

Satellite Brightness Start Highest point End
(mag) Time Altitude Azimuth Time Altitude Azimuth Time Altitude Azimuth
USA 234 4.2 16:51:03 10° ENE 16:56:47 32° SE 17:02:29 10° S
Cosmos 2208 Rocket 4.1 16:54:22 10° NNW 16:59:37 88° ENE 17:04:53 10° SSE
Cosmos 1484 Rocket 3.1 16:56:11 10° SE 16:59:50 44° ENE 17:03:34 10° N
Cosmos 841 Rocket 4.5 16:56:45 10° N 17:01:08 26° ENE 17:05:28 10° ESE
Cosmos 1862 3.6 16:59:00 10° N 17:03:02 76° W 17:07:03 10° S
Cosmos 972 Rocket 4.0 16:58:18 10° N 17:03:08 52° ENE 17:07:55 10° SSE
Cosmos 2233 Rocket 4.4 16:58:13 10° SSE 17:04:03 42° E 17:09:51 10° NNE
Meteor 1-28 Rocket 3.9 17:00:56 10° NNE 17:04:19 33° E 17:07:42 10° SSE
BREEZE-M DEB (TANK) 3.8 17:05:44 10° NNW 17:06:56 14° NNE 17:08:19 10° NE
Cosmos 1606 4.5 17:05:37 10° ESE 17:07:30 13° E 17:09:23 10° NE
AQUARIUS 4.3 17:03:08 10° SSE 17:07:31 55° ENE 17:11:55 10° N
MSX 4.4 17:03:14 10° S 17:08:57 66° WSW 17:14:43 10° NNW
CZ-4C R/B 4.2 17:07:58 10° NNW 17:12:24 18° NNE 17:17:03 10° ENE
Cosmos 1908 Rocket 4.4 17:08:52 10° NNE 17:12:34 27° ENE 17:16:15 10° SE
Cosmos 2242 Rocket 3.6 17:08:55 10° S 17:13:29 81° E 17:18:02 10° N
Landsat 4 4.5 17:11:04 10° NNE 17:14:31 33° E 17:17:57 10° SSE
Cosmos 1782 4.3 17:12:02 10° SE 17:14:42 17° E 17:17:21 10° NE
Cosmos 1733 Rocket 3.0 17:11:37 10° N 17:16:03 72° E 17:20:29 10° SSE
Lacrosse 5 3.6 17:14:38 10° W 17:18:43 24° NNW 17:22:49 10° NNE
Cosmos 2082 Rocket 3.4 17:14:29 10° N 17:18:44 21° NE 17:22:57 10° E
Sich 1 Rocket 4.5 17:15:57 10° NNE 17:19:44 27° ENE 17:23:32 10° SE
USA 161 4.2 17:21:48 10° WNW 17:22:02 10° WNW 17:22:17 10° W
CSL-04 Rocket 3.8 17:17:55 10° S 17:23:12 79° WSW 17:28:33 10° NNW
Cosmos 1862 Rocket 3.5 17:21:06 10° S 17:25:30 82° E 17:29:59 10° N
Cosmos 1816 Rocket 4.5 17:25:28 10° N 17:31:38 88° E 17:37:47 10° S
GENESIS II 4.1 17:30:02 10° NNW 17:33:58 71° NE 17:37:50 10° SE
Cosmos 1340 3.9 17:31:43 10° SSW 17:35:19 42° WNW 17:38:56 10° N
Cosmos 1725 Rocket 4.5 17:31:45 10° SSW 17:37:59 65° W 17:44:14 10° N
METEOR-M 4.2 17:32:58 10° SSE 17:38:09 55° ENE 17:43:22 10° N
CENTAUR R/B 3.2 17:33:37 10° SW 17:39:32 54° NW 17:46:21 10° NNE
Cosmos 1437 3.7 17:41:11 10° SSW 17:44:15 48° WNW 17:47:21 10° N
Cosmos 304 Rocket 3.7 17:40:28 10° NNW 17:45:18 77° ENE 17:50:04 10° SSE
Meteor 1-14 Rocket 4.1 17:42:24 10° N 17:48:07 83° E 17:53:41 10° S
Okean 1-7 3.6 17:44:53 10° SSE 17:48:52 36° E 17:52:07 15° NNE
MONITOR-E 4.3 17:46:13 10° SSE 17:49:09 45° ENE 17:52:05 10° N
ERS-2 2.0 17:46:01 10° SSE 17:49:40 71° ENE 17:53:21 10° N
IRS-1A Rocket 4.4 17:44:05 10° SSE 17:49:55 85° WSW 17:55:42 10° NNW
COSMOS 2406 4.4 17:44:34 10° NW 17:50:01 45° WSW 17:55:24 10° S
ERBS 2.3 17:47:17 10° NW 17:50:42 85° SW 17:53:40 13° SE
CZ-2C R/B 3.9 17:46:56 10° N 17:51:24 73° WNW 17:55:54 10° SSW
Cosmos 1844 Rocket 4.1 17:46:26 10° SW 17:51:38 37° WNW 17:56:50 10° N
COSMOS 2455 3.3 17:49:23 10° SW 17:55:20 61° WNW 18:01:19 10° NNE
CZ-4 R/B 4.4 17:51:40 10° SSE 17:55:49 87° WSW 18:00:00 10° NNW
Cosmos 1782 Rocket 3.7 17:52:44 10° N 17:56:56 47° ENE 18:01:08 10° SSE
COSMO-SKYMED 1 2.4 17:56:39 10° NNE 18:01:01 78° ESE 18:05:20 10° S
YAOGAN 1 2.9 17:58:08 10° S 18:02:25 68° WSW 18:06:45 10° NNW
Cosmos 2034 Rocket 4.4 17:56:51 10° SSE 18:02:40 39° E 18:08:30 10° NNE
BREEZE-M R/B 2.5 18:03:02 10° NW 18:05:50 68° NNE 18:07:11 37° ESE
CZ-4 R/B 2.9 18:02:55 10° SSW 18:06:33 37° W 18:10:09 10° NNW
Meteor 1-11 Rocket 4.3 18:02:25 10° N 18:07:43 34° ENE 18:10:14 24° ESE
Cosmos 44 4.2 18:04:22 10° NNW 18:08:00 27° NE 18:08:00 27° NE
Cosmos 1763 Rocket 4.0 18:04:24 10° NNW 18:09:33 61° WSW 18:14:36 10° S
Cosmos 2221 Rocket 3.5 18:06:14 10° S 18:10:34 58° E 18:13:08 23° NNE
Centaur D AC-28 4.3 18:07:55 10° SW 18:12:40 33° SSE 18:21:44 18° ESE
FENGYUN 3A 3.5 18:07:56 10° SSE 18:13:18 69° ENE 18:18:41 10° N
Cosmos 2297 3.8 18:10:40 10° S 18:16:13 56° ESE 18:18:47 31° NE
MOS 1 4.4 18:10:42 10° S 18:16:24 78° WSW 18:22:08 10° NNW
ALOS 2.1 18:12:15 10° SSE 18:16:54 77° ENE 18:21:36 10° N
Cosmos 1833 Rocket 2.6 18:14:02 10° NNW 18:19:36 59° ENE 18:23:09 22° SE
Cosmos 2278 Rocket 2.9 18:17:45 10° SW 18:23:18 54° WNW 18:28:39 11° NNE
SL-27 R/B 2.5 18:20:47 10° NNW 18:24:06 70° WSW 18:25:00 44° S
Cosmos 1503 Rocket 3.9 18:19:01 10° S 18:24:17 74° ESE 18:26:49 31° NNE
Cosmos 1703 Rocket 4.1 18:20:22 10° SSW 18:24:47 60° W 18:29:13 10° N
Cosmos 1633 3.2 18:27:45 10° NNW 18:31:21 55° W 18:34:55 10° S
Cosmos 1464 Rocket 3.9 18:26:02 10° S 18:32:09 90° WSW 18:38:20 10° N
Okean 2 Rocket 2.9 18:28:29 10° N 18:33:03 77° E 18:37:32 10° SSE
Meteor 2-20 4.3 18:28:47 10° N 18:34:50 63° E 18:40:50 10° SSE
Cosmos 836 Rocket 4.4 18:34:20 10° NNW 18:39:36 90° W 18:43:38 18° SSE
USA 234 3.4 18:36:48 32° NE 18:40:05 72° NW 18:46:35 10° WSW
Cosmos 540 Rocket 3.4 18:36:49 10° NNW 18:42:01 83° WSW 18:46:03 17° SSE
Cosmos 1606 4.2 18:39:23 10° SW 18:42:54 36° WNW 18:45:11 18° NNW
Meteor 2-6 Rocket 4.4 18:44:35 10° SSW 18:49:57 65° WNW 18:55:29 10° N
Atlas 2A Centaur Rocket 4.4 18:41:37 10° WSW 18:51:33 23° SSW 18:53:42 19° SSE
CZ-4C R/B 3.0 18:55:31 10° NNW 19:02:17 55° NE 19:02:17 55° NE
Cosmos 2082 Rocket 2.5 18:57:41 10° NNW 19:03:18 63° WSW 19:05:55 32° S
Lacrosse 5 4.2 19:01:01 10° NNW 19:03:04 13° N 19:03:04 13° N
FengYun 1-2 T 4.3 19:03:36 31° S 19:06:19 75° WSW 19:11:54 10° NNW
Meteor 1-27 Rocket 4.1 19:08:00 10° SSW 19:13:50 67° WNW 19:15:39 45° NNW
Meteor 2-20 Rocket 4.4 19:11:33 10° N 19:25:48 - S 19:17:34 77° W
